Theta_e
286 286 285 286 285 285 285 285 285 284 285 284 281 282 284 284 279 278 283 285 283 283 277 280 279 279 278 281 280 280 281 281 280 280 280 279 280 280 280 280 281 281 281 282 283 283 284 285 285 285 286 286 286 286 286 286 286 286 286 286 286 286 285 285 285 285 285 285 285 285 285 285 284 284 284 284 284 283 283 283 283 282 282 282 282 282 282
283 283 284 283 283 284 284 284 284 284 283 283 283 283 284 284 283 285 284 284 285 277 277 277 280 280 280 281 282 281 280 279 279 279 279 279 279 280 280 280 281 281 281 282 282 283 283 284 284 285 285 285 285 285 286 286 285 286 286 286 286 286 286 286 286 285 285 285 285 285 284 284 284 284 284 284 283 283 283 282 282 282 281 282 282 282 282
280 283 284 283 282 282 280 282 283 282 282 282 283 283 283 284 282 284 284 283 280 277 279 277 281 281 280 280 279 280 280 279 279 279 279 280 279 280 280 281 281 282 282 282 283 283 283 284 284 285 285 285 285 285 285 285 285 286 286 286 286 285 285 286 286 286 285 285 285 284 284 284 284 284 283 283 283 282 282 282 281 281 281 281 282 282 281
276 281 280 281 281 280 278 277 278 279 279 277 279 279 280 279 278 280 278 278 276 277 279 280 280 280 278 277 278 279 280 280 279 279 279 280 280 281 281 281 282 282 282 282 283 283 284 284 285 285 285 285 284 284 285 285 285 286 286 285 285 285 285 285 285 285 285 285 284 284 284 283 283 283 283 282 282 281 281 280 281 281 281 281 281 281 281
273 279 279 278 276 275 272 273 277 278 278 280 280 279 276 277 279 277 277 276 275 276 279 276 277 278 278 278 278 279 280 281 279 279 279 280 280 281 281 281 281 282 282 283 283 284 284 285 285 285 286 285 284 285 284 285 285 285 285 284 284 284 285 285 284 284 283 283 283 283 283 283 283 282 281 281 281 280 280 280 280 280 280 280 280 281 281
272 275 274 272 270 265 266 275 276 280 278 278 278 277 275 277 278 273 276 274 277 277 277 276 276 277 277 278 279 281 280 280 279 279 280 280 281 281 281 281 281 282 283 283 284 284 284 285 285 285 285 285 285 285 285 286 285 284 284 284 283 283 284 284 283 283 282 282 282 283 283 282 281 281 281 281 281 281 281 280 280 280 280 280 280 280 280
269 271 268 268 263 265 276 277 277 276 276 275 274 275 277 277 277 277 275 277 276 278 278 278 278 279 279 280 279 280 281 281 279 279 279 280 280 281 281 281 281 282 282 283 283 284 284 284 285 285 284 284 285 285 285 285 285 285 284 284 283 283 283 283 283 282 281 281 281 281 281 281 280 280 280 280 281 280 280 280 280 280 280 280 280 280 280
267 267 266 261 262 271 277 276 276 276 275 276 275 274 276 277 277 276 274 277 277 278 278 279 280 279 279 280 280 280 282 281 279 280 279 280 281 281 281 281 281 281 282 282 283 283 284 284 284 283 283 284 284 283 285 285 284 284 284 284 284 283 282 282 282 282 280 280 280 279 279 278 278 280 280 280 280 280 280 280 280 280 280 280 280 280 280
266 268 266 267 271 269 272 269 272 273 273 275 274 270 275 276 278 277 275 277 278 277 278 279 279 279 279 276 276 281 280 281 281 281 281 281 281 282 282 281 281 282 282 283 283 283 283 283 282 282 283 283 282 283 283 283 283 283 283 283 283 283 282 282 281 281 280 279 279 279 278 277 278 278 279 279 279 279 279 279 279 279 279 280 280 280 280
275 267 267 269 270 267 272 273 274 278 278 279 279 275 271 274 271 276 277 276 277 277 278 278 278 278 274 271 273 279 279 279 280 281 282 282 282 281 281 281 281 281 282 282 282 282 281 282 282 282 282 281 281 281 281 281 280 281 281 282 283 282 281 281 281 280 279 278 278 278 278 277 277 278 277 278 278 278 278 278 278 278 279 279 279 279 279
273 268 267 266 266 268 271 270 273 275 278 279 279 273 267 274 271 274 277 276 277 277 277 277 277 272 268 270 273 275 277 279 280 280 280 281 281 280 280 280 280 280 281 281 281 281 280 280 280 281 280 279 279 278 278 278 278 279 280 281 282 281 281 281 280 279 278 277 277 277 277 277 276 276 276 277 276 275 277 277 278 278 278 278 277 278 278
270 269 267 264 267 263 270 270 272 275 276 277 275 266 267 272 272 275 277 276 276 276 277 276 273 270 267 269 274 277 277 278 279 279 279 279 280 280 280 280 280 280 280 280 279 279 279 279 279 279 278 278 277 277 276 277 277 277 279 280 281 281 280 280 280 280 279 277 277 276 276 276 275 275 274 273 273 274 275 276 276 276 276 277 276 276 277
268 271 266 267 268 272 270 271 273 273 275 273 264 262 268 272 271 273 276 275 274 274 273 274 268 272 275 275 277 277 278 277 277 277 277 278 279 279 279 279 280 279 278 278 277 278 278 278 277 277 276 276 275 275 275 275 275 277 278 278 278 277 278 280 281 280 279 277 277 276 276 275 275 274 273 274 272 272 273 272 272 273 274 274 275 275 275
265 264 265 266 265 268 267 269 272 273 270 260 263 268 271 269 272 271 274 274 275 274 274 274 274 276 276 276 276 277 277 277 277 277 277 277 277 278 278 279 278 277 276 276 276 277 277 277 276 275 275 274 273 273 273 273 275 276 276 276 275 275 277 280 280 280 279 278 277 277 276 274 273 274 272 273 273 273 273 272 273 273 273 273 273 273 273
260 263 262 262 261 267 269 273 271 271 264 265 271 270 271 273 271 271 272 274 275 275 274 275 276 276 276 276 276 276 276 276 276 276 276 275 275 275 275 275 276 275 274 274 274 274 275 275 274 274 273 272 272 272 272 273 274 275 274 273 273 274 277 279 278 278 278 278 277 276 276 275 274 274 272 272 272 273 273 272 273 273 273 272 272 271 271
261 261 260 260 264 269 273 270 265 268 272 275 272 271 273 274 274 273 274 275 276 276 276 275 275 275 275 275 275 275 275 275 275 275 275 275 275 274 274 274 274 273 272 273 272 273 273 273 273 272 272 271 271 271 271 273 273 273 272 271 272 273 275 275 275 275 276 277 277 276 275 275 275 274 273 272 272 272 271 271 271 271 270 270 270 269 269
264 261 265 269 271 272 275 274 274 275 276 275 272 273 274 274 274 275 274 276 276 276 276 276 275 274 275 275 275 274 275 275 274 274 274 274 274 273 273 272 272 271 270 270 270 270 271 271 271 271 271 270 270 269 270 271 271 270 270 270 270 271 272 272 272 273 274 275 276 276 275 275 274 274 273 272 272 272 271 271 271 271 270 270 270 270 270
272 272 273 275 273 274 275 277 277 276 276 275 274 273 272 274 275 276 276 276 276 276 275 274 274 274 274 274 274 274 274 274 274 274 273 273 273 272 272 271 271 270 269 268 268 268 268 269 269 269 269 268 267 268 269 269 269 268 268 268 269 270 270 270 269 270 271 272 275 276 275 274 274 275 274 273 273 272 272 272 272 272 271 271 270 271 271
269 265 274 272 274 275 275 276 277 275 274 275 275 273 275 275 276 276 275 276 276 276 274 274 274 274 274 274 274 273 273 272 272 272 272 272 271 271 270 270 270 268 268 267 267 267 267 268 268 268 267 267 267 268 267 267 267 267 267 267 267 267 266 266 267 268 269 270 272 275 275 274 274 274 274 273 273 272 272 272 272 272 272 271 271 271 270
270 269 274 274 275 276 276 276 275 275 276 275 275 275 275 276 276 275 275 274 274 273 272 273 272 273 273 272 272 272 271 271 271 271 270 270 270 270 270 269 268 267 266 266 266 265 265 267 267 266 266 266 266 266 265 265 265 265 265 265 264 264 264 264 265 266 267 270 271 272 274 274 273 273 273 273 273 272 272 272 272 272 272 271 271 271 271
272 274 274 274 275 275 275 275 275 276 276 276 276 276 275 274 274 274 273 272 273 273 273 272 271 269 270 270 270 269 269 269 269 269 269 269 269 268 268 267 267 266 265 265 265 265 265 266 265 265 264 264 264 264 264 264 264 263 262 263 263 262 262 263 263 266 267 269 270 272 273 273 273 274 274 273 273 273 274 275 274 274 273 273 273 273 273
268 268 271 274 266 268 273 274 274 275 274 273 273 273 271 271 270 270 269 270 270 270 270 269 269 268 269 269 268 267 267 268 268 268 268 267 267 267 267 266 265 265 265 264 264 264 264 264 264 263 263 263 263 263 262 262 262 261 261 261 260 261 261 262 264 265 267 269 270 272 273 273 273 273 275 278 276 274 274 276 278 278 278 274 274 274 273
268 273 275 276 275 274 275 276 276 273 271 272 271 271 270 268 268 267 267 268 268 269 268 268 267 266 267 267 267 266 266 267 267 267 266 266 266 265 265 264 264 263 263 263 263 262 262 263 262 262 261 261 261 261 261 261 261 260 260 260 260 260 261 262 264 265 267 268 269 271 272 272 273 272 273 274 278 280 278 277 277 278 279 279 279 278 274
275 277 277 276 273 273 275 274 271 269 269 269 269 267 267 267 266 266 265 266 265 266 266 266 266 266 266 266 266 265 265 265 265 265 265 265 265 265 264 264 263 262 262 261 261 261 261 260 260 260 259 260 260 260 260 260 260 260 259 259 259 259 260 261 263 264 265 266 268 270 271 272 272 272 272 272 273 277 279 279 279 279 279 280 280 279 279
275 278 277 274 273 274 273 270 269 266 265 266 266 266 266 265 265 265 264 264 264 264 265 265 266 266 264 265 265 264 264 264 264 264 264 264 264 264 263 262 261 260 260 260 260 259 259 259 258 258 258 258 259 259 259 259 259 259 259 259 258 259 259 260 261 262 263 264 266 268 270 271 271 272 271 271 271 271 274 278 280 280 279 280 280 280 280
277 277 273 269 269 271 271 270 268 264 264 265 264 264 265 265 265 264 264 264 264 264 264 264 264 264 264 263 263 263 262 262 263 263 262 261 261 260 260 259 259 259 259 259 258 258 257 257 257 257 257 258 258 258 259 259 259 258 258 258 258 259 259 260 261 262 263 264 266 267 270 271 271 272 272 272 271 272 271 271 273 277 280 280 280 280 280
265 266 268 271 271 272 267 267 267 264 264 264 263 263 264 263 264 264 263 263 262 262 262 263 262 263 262 262 261 261 261 261 261 260 260 259 259 259 259 259 258 258 257 257 257 257 257 257 257 257 257 258 258 258 258 258 258 258 258 258 259 260 262 262 262 263 264 265 265 265 268 270 271 271 271 272 272 271 271 271 271 271 272 275 278 280 278
264 263 267 270 272 268 264 264 263 263 263 263 263 263 262 262 260 259 259 260 260 260 261 260 260 260 260 260 259 259 259 258 257 258 257 257 258 258 258 257 257 257 256 256 256 256 257 256 256 256 257 258 258 259 258 258 258 258 259 259 260 260 261 262 263 262 262 262 262 263 263 264 268 272 272 272 271 271 271 271 271 271 272 273 274 277 280
262 262 262 261 262 262 262 262 262 262 262 262 262 261 259 258 258 258 259 260 260 260 260 259 258 258 258 258 258 257 256 256 256 256 256 257 257 257 257 256 256 256 256 256 256 256 256 256 256 256 257 258 258 259 259 258 258 258 259 260 260 260 260 261 261 261 262 263 264 265 267 268 270 271 272 272 271 271 271 271 271 271 271 272 272 273 276
260 261 259 259 260 260 260 260 260 260 259 260 259 258 258 258 257 258 259 259 258 258 258 258 257 257 257 256 256 255 255 255 255 255 256 256 256 256 256 256 256 256 256 256 256 256 256 256 256 256 257 258 259 259 259 259 259 259 259 259 259 259 260 261 262 263 264 264 265 266 267 268 269 271 271 271 271 271 270 270 270 270 270 271 272 271 272
258 258 257 258 259 258 258 258 258 258 259 258 258 257 257 256 256 257 257 258 257 257 257 256 255 255 255 254 255 255 255 255 254 254 255 255 255 256 256 256 255 255 255 256 256 256 256 257 257 257 258 258 258 258 258 258 258 258 259 259 260 261 262 262 263 261 261 262 262 263 264 265 265 269 271 270 270 270 270 270 270 270 270 271 271 271 272
255 255 255 257 257 255 256 256 257 257 257 257 255 255 255 255 254 254 255 255 255 255 255 254 254 253 254 254 254 254 254 254 254 254 254 255 255 256 257 257 257 257 257 257 257 257 257 256 256 257 258 258 258 258 258 258 259 259 259 260 260 260 260 262 261 262 262 262 263 264 266 266 267 268 270 269 269 269 269 269 269 269 270 270 270 271 273
255 259 257 255 253 254 254 255 255 255 254 254 255 255 255 254 255 255 255 255 254 254 253 253 253 253 253 253 253 253 253 253 253 254 254 255 256 257 258 258 257 257 257 256 256 256 255 255 255 257 257 257 258 258 258 259 259 258 259 259 259 259 260 261 261 261 262 262 263 264 266 267 268 269 269 269 269 269 269 269 269 269 270 270 271 272 273
255 256 255 254 254 255 255 254 254 254 254 255 255 254 254 254 254 254 253 253 253 253 252 253 253 253 253 252 252 252 252 252 253 254 255 256 256 257 257 256 255 255 255 255 255 255 256 256 256 256 257 257 257 258 258 258 258 258 258 258 258 258 258 259 260 260 261 262 263 264 264 266 268 269 269 269 269 269 269 269 269 269 270 270 271 272 274
256 255 256 255 255 255 254 254 253 253 252 252 252 252 253 253 252 252 253 253 252 252 253 253 253 252 252 252 252 252 253 253 255 256 256 256 255 255 255 254 254 254 253 254 255 255 256 257 257 257 257 257 258 258 258 258 258 258 258 258 259 259 259 259 260 260 260 262 264 265 265 266 267 267 268 268 268 268 268 268 269 269 269 270 270 271 272
255 254 253 253 252 251 251 251 252 251 251 251 251 251 251 252 252 251 251 252 253 253 253 253 252 252 251 251 252 253 254 255 256 256 256 255 254 254 253 252 252 252 252 253 255 256 257 257 258 258 258 258 258 258 258 258 258 258 259 259 259 259 260 260 261 261 262 263 264 265 266 266 267 267 268 268 268 268 268 268 268 269 269 270 270 270 271
253 252 252 252 252 251 250 251 251 251 251 251 251 251 251 251 251 251 252 252 252 252 252 251 251 251 251 252 253 255 256 257 256 255 254 254 253 252 252 252 253 252 253 252 254 256 256 256 257 258 258 257 257 258 258 259 259 259 259 259 259 260 260 260 261 261 262 264 265 265 266 266 267 267 267 267 267 267 268 268 268 268 268 268 269 269 267
252 252 251 251 251 250 250 251 251 251 250 250 250 251 251 251 251 251 251 251 251 252 252 252 251 252 253 254 255 256 256 257 256 255 254 253 252 252 252 252 252 253 253 253 255 256 256 257 258 258 257 257 257 257 258 259 260 259 259 259 260 260 261 261 261 262 263 264 264 265 266 266 266 266 266 266 267 267 267 267 266 267 267 266 264 264 264
252 252 251 251 250 250 250 250 250 250 249 249 249 249 250 251 251 251 251 251 251 252 251 252 253 253 254 254 255 256 256 256 255 254 253 252 252 252 251 252 253 254 254 256 256 256 257 257 258 257 257 257 257 258 258 259 260 259 259 260 260 261 261 262 262 262 263 263 264 264 264 264 265 265 265 265 265 265 265 265 266 264 262 262 262 261 261
251 251 250 251 250 250 250 250 250 250 250 250 249 249 250 250 250 250 250 250 251 252 252 252 253 253 254 255 255 255 255 255 254 253 252 252 252 252 252 253 254 255 256 256 256 256 257 258 257 256 257 257 258 258 259 259 259 259 258 259 259 260 260 260 261 261 261 262 262 262 263 263 263 263 262 263 263 263 263 262 262 261 261 260 260 259 259
251 251 251 251 251 251 250 250 250 250 250 250 250 250 250 250 250 249 249 249 250 252 252 252 253 254 255 256 255 255 255 255 254 253 253 252 252 252 251 251 254 255 255 256 256 257 257 257 256 256 257 257 258 258 258 259 258 257 257 258 259 259 259 259 259 260 260 260 260 261 260 261 261 261 261 261 261 261 260 260 260 260 260 259 258 258 258
251 251 251 251 250 250 250 250 250 250 249 249 250 250 250 250 249 249 249 250 251 252 252 253 256 256 256 256 256 255 254 254 254 253 253 252 251 251 251 252 255 255 256 256 256 256 256 255 256 257 257 257 258 258 259 258 258 257 257 257 258 258 258 258 258 259 259 260 260 260 260 260 260 259 260 260 259 259 259 259 259 258 258 258 258 258 257
250 249 249 249 250 249 249 249 249 249 249 249 249 249 249 249 249 249 250 251 251 252 253 255 256 256 256 255 255 254 253 254 253 253 253 253 254 253 252 253 255 255 256 256 256 255 255 255 255 256 257 257 257 258 258 258 257 257 257 257 258 258 258 258 258 258 259 259 259 259 259 259 259 259 259 259 258 258 258 258 258 258 258 258 257 257 257
249 249 249 249 249 250 250 249 249 249 248 249 250 250 249 249 250 250 250 251 252 253 255 255 256 255 255 255 254 253 253 253 253 253 252 253 254 255 255 255 255 255 256 256 255 254 254 255 255 256 257 257 257 257 257 257 257 257 257 257 257 257 257 257 257 258 258 258 258 258 258 259 259 259 258 258 258 258 257 257 257 257 257 257 258 257 257
249 249 249 249 248 248 248 248 248 248 249 250 250 249 249 249 250 251 252 252 253 254 256 256 256 255 255 255 254 254 254 254 253 252 251 251 251 252 255 255 255 255 255 256 254 254 254 255 256 256 256 256 256 256 256 256 256 256 256 256 256 256 257 257 257 257 257 257 257 258 258 258 258 258 258 258 257 257 256 256 256 257 257 257 256 256 256
249 249 248 249 247 247 248 248 248 249 249 249 249 250 251 250 251 252 252 253 254 255 256 256 256 256 255 255 255 255 254 254 253 252 251 251 251 252 254 255 255 255 255 255 254 253 254 255 256 256 256 255 255 254 254 255 255 255 256 256 256 256 256 256 256 256 256 257 257 257 257 257 257 257 257 257 256 256 256 256 256 256 257 256 256 255 255
247 247 247 246 246 247 247 247 248 248 248 248 248 249 251 252 252 253 253 255 255 256 256 256 256 256 256 255 254 253 252 252 253 252 252 253 254 254 255 255 255 255 255 254 253 253 254 254 255 255 255 254 254 253 253 253 254 254 254 255 255 255 256 256 256 256 256 256 256 256 256 256 256 256 256 256 256 256 256 255 255 255 255 255 255 254 254
246 246 246 246 246 247 247 246 245 245 246 248 249 251 252 253 253 254 255 256 256 256 255 255 255 255 255 255 255 255 254 252 251 252 252 253 253 253 253 253 254 255 254 254 253 253 254 254 254 254 254 253 252 252 252 252 253 253 253 253 254 254 255 255 255 255 255 255 256 255 255 255 255 255 255 255 255 255 255 255 254 254 254 254 254 254 254
245 245 246 246 246 246 246 247 248 250 249 251 251 252 253 254 254 255 255 255 255 255 255 255 255 254 255 255 255 254 254 254 253 251 253 253 253 252 253 254 254 254 253 252 252 251 253 254 254 254 253 252 251 251 251 251 252 252 252 252 253 253 254 254 254 254 254 254 254 254 254 254 254 254 254 254 254 254 254 254 254 254 254 254 253 253 253
246 246 247 247 247 248 248 248 249 250 252 253 253 253 254 254 254 254 255 255 254 255 254 255 255 255 255 255 255 255 254 254 254 254 254 253 253 253 253 253 253 254 253 252 251 252 253 253 253 253 252 251 251 251 251 251 251 251 251 251 251 252 252 253 254 254 253 253 253 253 253 253 253 253 253 253 253 253 253 253 253 253 253 253 252 252 251
247 247 248 249 250 251 249 250 251 253 253 254 254 254 255 254 254 254 254 254 254 253 253 254 254 254 254 254 255 255 255 254 254 255 254 254 253 254 254 253 253 253 253 252 251 251 251 251 251 252 252 251 250 251 251 251 250 250 251 250 250 250 250 251 251 251 251 252 252 252 252 253 253 253 253 253 253 253 253 252 253 252 252 252 251 251 250
247 248 250 251 251 252 252 253 253 254 254 254 254 254 254 254 254 253 254 255 254 253 253 253 252 254 254 254 254 254 254 254 254 254 254 254 254 253 253 253 253 252 251 251 251 251 251 252 252 252 252 251 251 250 251 251 250 250 250 250 250 250 250 250 250 250 249 250 250 249 250 250 250 251 251 251 251 251 251 251 251 250 250 250 250 249 248
Wind_Speed
10 11 14 8 5 4 7 8 10 11 11 12 13 16 15 9 12 17 15 17 18 9 7 6 7 9 9 6 8 7 6 6 9 10 12 12 14 15 17 16 15 14 14 13 15 16 16 16 18 17 16 15 15 14 12 13 13 14 13 13 14 13 12 11 12 12 11 11 11 12 12 12 12 13 13 12 12 11 12 13 12 13 12 12 12 14 13
7 8 7 6 8 8 9 10 10 11 12 15 17 18 14 14 17 17 17 15 17 5 3 4 2 3 6 6 4 2 4 8 8 10 11 10 12 12 14 14 14 13 14 14 13 14 15 16 17 17 16 16 15 15 15 16 16 14 14 13 13 14 14 13 12 11 12 11 11 11 12 13 13 13 12 12 12 13 14 14 12 11 11 12 13 14 15
8 8 8 8 9 9 11 10 10 10 14 16 15 14 16 17 15 14 16 15 3 5 3 2 1 2 4 4 7 4 4 6 9 10 12 10 11 10 10 12 14 14 14 14 14 15 15 15 16 15 15 15 15 14 14 15 15 15 13 13 13 12 14 13 14 13 12 11 11 12 12 12 11 11 12 10 11 12 12 12 13 12 12 14 15 14 14
12 9 11 9 9 10 11 12 13 17 19 18 12 16 3 6 13 11 8 11 3 1 3 3 3 1 4 4 8 4 4 6 7 8 10 12 13 12 12 12 12 14 16 16 15 16 16 16 16 15 16 16 15 15 15 15 15 13 14 14 15 14 14 15 15 14 12 12 11 12 11 11 11 11 10 10 11 11 11 12 11 10 13 15 13 12 12
10 12 11 9 5 10 13 14 17 17 16 16 17 6 5 1 2 4 10 3 5 3 2 3 5 3 6 4 5 6 3 2 4 9 11 11 11 11 12 12 12 13 13 14 15 15 14 15 16 16 15 15 15 15 17 16 15 14 13 13 14 14 14 14 14 13 13 12 11 11 11 11 10 8 9 10 11 10 12 11 10 13 14 12 13 13 12
9 15 11 3 6 14 15 3 1 5 12 9 12 7 3 3 1 1 3 3 3 1 1 1 4 4 5 7 7 6 5 3 4 7 8 9 9 10 10 10 11 11 11 12 13 14 14 14 14 14 14 14 14 13 13 13 13 14 14 14 12 13 13 13 14 13 13 12 12 11 10 9 8 8 8 11 10 9 8 8 11 12 11 14 12 13 14
10 8 6 11 14 15 3 2 2 5 7 7 4 6 4 7 5 5 4 3 0 3 2 6 5 6 6 5 8 9 4 4 4 8 8 8 9 10 10 10 11 11 12 12 12 12 13 13 13 13 14 14 14 15 14 15 13 13 13 13 12 11 13 13 13 13 14 13 13 12 9 7 7 7 8 8 8 8 8 11 12 13 14 14 14 14 13
2 1 4 7 10 3 1 2 1 0 5 8 9 2 5 3 4 5 2 4 5 5 6 5 6 6 8 6 9 9 5 4 3 7 9 9 9 10 9 11 11 12 12 12 12 13 12 12 12 12 13 13 14 16 15 13 14 13 13 13 12 11 13 13 13 13 13 13 13 12 10 7 6 8 7 7 8 7 7 8 8 8 9 10 12 13 13
8 6 9 14 5 6 6 1 2 3 2 3 1 2 3 7 2 3 3 4 6 6 7 7 6 6 6 6 7 4 5 3 3 4 9 10 10 10 9 8 11 10 10 10 11 11 12 12 13 13 13 13 15 16 15 14 14 14 13 13 13 13 13 13 14 14 13 13 13 12 10 9 8 8 7 7 6 4 6 7 8 10 10 11 11 12 14
9 7 8 7 6 10 2 2 0 0 3 1 3 4 4 6 4 6 6 7 7 8 7 6 6 5 4 7 3 4 4 2 4 5 6 8 9 8 9 9 9 10 10 9 9 10 11 12 12 12 12 13 14 15 15 15 14 14 13 13 12 12 13 14 14 13 12 11 12 11 10 10 10 8 6 4 5 4 7 8 9 9 8 9 9 10 12
2 2 6 5 7 6 3 8 5 4 4 3 5 4 5 6 3 5 10 10 8 7 7 7 3 1 5 8 5 4 2 3 4 8 9 9 9 9 9 10 12 11 10 10 10 9 9 11 11 10 12 14 14 14 14 14 14 14 14 13 13 14 14 14 14 13 12 11 10 10 10 10 9 9 7 6 4 3 6 6 7 6 7 8 8 8 10
5 5 7 9 2 3 2 4 3 6 2 2 2 6 4 3 6 5 8 8 7 6 7 5 3 4 7 8 9 6 6 4 4 6 9 10 10 9 10 10 10 11 12 11 11 10 11 12 10 10 11 12 14 15 15 14 14 14 13 13 14 14 15 14 13 12 11 11 11 10 11 10 8 8 6 4 5 5 5 5 5 5 6 7 8 8 7
8 11 8 4 6 2 2 5 6 4 2 2 3 13 2 1 4 5 6 7 7 5 5 5 5 8 10 9 8 7 9 8 7 6 5 8 10 11 11 12 10 10 10 10 12 12 11 11 10 8 9 10 12 13 14 15 16 14 14 14 15 16 16 15 13 13 11 10 12 11 9 10 8 6 5 5 5 5 6 5 4 5 6 6 7 6 6
9 6 8 9 4 5 4 6 7 4 3 1 9 3 4 1 4 2 7 7 8 6 8 7 9 11 9 7 6 8 10 11 9 9 9 9 10 11 10 11 11 9 10 11 12 13 11 11 11 9 9 11 12 12 13 15 15 14 14 14 15 17 18 14 13 13 13 12 10 10 9 8 8 7 5 5 6 6 6 5 6 7 5 5 5 5 4
2 0 4 4 7 1 6 1 2 1 5 7 1 1 4 2 4 5 4 6 8 7 8 10 11 10 9 9 10 9 10 11 13 11 10 11 12 12 13 13 12 10 11 13 13 14 13 11 10 10 10 13 14 12 14 15 13 13 14 15 17 18 17 14 14 15 14 13 12 9 9 7 8 9 6 5 5 5 6 6 6 6 6 5 5 5 4
4 5 6 5 6 2 4 2 3 3 6 4 3 3 9 7 4 5 5 6 8 8 9 9 10 10 10 10 10 9 10 11 11 11 11 11 11 12 11 11 12 8 9 11 13 14 15 14 11 10 10 13 14 15 17 13 11 13 14 16 17 19 17 15 16 16 16 15 12 9 9 8 8 9 7 6 6 6 6 6 6 6 5 5 5 6 7
5 6 6 7 3 3 5 3 7 10 13 7 4 5 7 7 6 5 4 8 9 8 9 10 10 10 10 11 9 9 11 11 11 13 13 13 13 13 14 14 10 6 9 12 13 15 16 16 14 11 9 11 16 20 16 10 12 13 15 17 17 19 18 17 17 16 16 16 14 11 9 8 9 9 8 7 7 6 6 6 6 7 7 6 8 8 8
5 5 10 8 2 8 13 13 12 11 10 7 4 5 5 7 9 6 7 7 8 7 6 8 9 10 10 8 9 10 9 10 12 13 14 14 13 12 12 13 12 8 10 11 13 16 18 17 15 10 9 9 15 18 15 13 13 15 16 17 18 17 17 18 18 17 20 19 17 13 11 8 10 9 9 9 8 7 7 8 8 8 8 8 8 8 9
6 10 9 3 8 12 10 13 13 6 4 8 5 4 6 8 9 8 5 8 8 9 5 9 10 10 9 9 10 9 9 12 13 14 15 15 14 14 15 15 12 12 12 14 16 16 17 19 16 11 13 13 14 14 14 12 13 15 17 17 17 17 17 17 18 19 17 16 15 13 11 9 9 9 9 8 8 8 9 9 9 9 9 9 9 9 9
11 16 14 10 10 12 12 11 10 12 10 8 7 7 7 8 7 5 6 4 7 4 5 6 4 8 9 9 10 9 11 12 13 14 14 15 15 16 15 14 11 12 14 15 16 16 16 19 14 14 13 15 14 14 13 13 13 14 16 17 17 18 19 17 16 16 18 19 20 14 12 10 10 10 9 10 10 11 11 12 11 11 11 11 12 12 11
12 14 13 13 14 11 10 12 10 10 11 12 12 10 7 6 6 6 2 1 3 2 6 2 2 6 11 9 7 8 12 14 14 14 13 14 15 16 17 15 11 13 13 16 15 17 18 17 14 14 15 13 12 12 12 12 13 15 17 18 18 20 19 15 15 15 14 15 14 14 12 10 10 11 11 11 12 12 11 10 11 12 12 12 12 11 10
11 11 12 9 7 9 10 7 9 9 6 4 6 5 4 3 3 3 4 5 2 3 3 2 3 7 10 11 7 7 11 14 17 16 15 14 15 17 16 11 13 13 14 14 17 17 19 14 14 15 17 16 14 11 10 11 11 14 16 18 18 18 16 15 14 12 12 11 13 13 12 12 11 11 14 19 14 12 11 14 19 17 13 11 11 10 11
12 13 14 12 11 11 12 14 9 1 2 0 2 2 2 1 2 1 2 6 8 6 4 3 5 7 9 13 9 10 12 15 15 15 14 15 16 16 14 13 15 14 14 15 14 18 17 17 15 17 17 18 16 12 8 9 10 13 16 15 16 16 16 14 15 15 14 13 12 12 12 12 11 12 11 11 23 27 22 14 15 20 21 20 16 15 13
14 15 16 9 4 8 10 4 1 2 3 2 1 1 1 1 1 2 2 2 5 9 9 8 5 8 10 11 7 11 15 16 17 16 15 14 15 14 14 12 15 18 18 18 17 18 16 15 17 16 18 18 16 11 11 9 10 14 16 14 15 17 16 16 17 16 14 14 14 13 12 12 11 12 11 12 10 17 25 24 22 21 22 24 23 21 21
15 15 9 3 4 7 2 2 3 5 5 4 2 1 2 4 4 3 5 5 3 6 9 13 11 4 5 11 10 11 13 17 17 16 17 17 17 16 15 16 16 16 17 16 16 15 14 17 17 19 18 19 14 11 10 11 11 15 16 16 17 18 17 18 17 18 17 15 14 13 13 12 12 11 12 11 12 10 10 19 23 23 22 24 25 25 23
11 11 6 0 1 5 2 1 1 6 5 5 3 2 2 3 4 4 5 6 7 5 8 10 12 13 6 8 10 11 13 17 17 16 14 15 15 14 13 15 15 15 14 15 15 17 16 18 20 19 20 18 13 12 11 12 13 15 16 17 18 16 15 17 17 16 14 14 14 14 12 12 12 11 11 11 11 11 9 6 9 16 22 25 25 26 26
5 4 2 5 8 6 6 1 2 5 5 3 3 4 4 4 5 5 5 5 6 6 8 10 9 11 12 8 8 10 11 16 18 17 13 15 17 15 15 13 15 15 19 17 17 18 19 20 19 19 19 18 15 12 14 13 16 16 16 16 16 19 31 25 17 16 13 10 12 14 14 13 11 12 13 11 10 11 10 10 9 10 9 12 19 26 20
4 4 2 7 11 2 1 3 2 3 2 3 4 5 6 6 6 7 8 7 5 5 5 5 7 9 12 11 7 13 13 13 15 17 16 16 14 14 14 15 17 19 16 19 17 18 18 20 18 20 21 17 15 16 14 16 16 18 17 16 15 15 16 17 15 11 14 14 13 14 14 16 16 13 11 11 11 10 10 10 10 10 9 9 9 15 28
3 3 3 2 1 2 1 2 1 1 2 3 3 3 4 6 8 7 8 7 7 8 9 5 4 5 9 13 10 12 15 16 16 17 16 15 14 15 15 17 17 16 17 16 18 17 17 17 18 19 20 14 14 13 15 14 15 14 15 14 13 13 11 11 12 12 13 14 15 16 17 16 14 13 11 11 10 10 9 10 10 9 9 7 6 8 14
2 2 2 2 2 1 2 2 1 2 3 3 4 3 3 4 9 11 10 8 7 10 9 8 9 9 6 11 13 12 15 17 18 17 17 16 16 15 16 17 19 18 14 15 15 12 16 17 17 17 17 11 14 13 13 15 15 16 16 17 13 14 14 15 14 14 12 11 13 19 17 15 14 14 13 11 10 10 10 10 10 9 9 8 9 9 11
3 2 2 0 1 3 3 3 2 3 3 2 2 4 5 3 5 11 13 10 8 9 10 10 12 14 12 11 12 13 13 15 15 16 15 15 14 16 16 16 16 16 17 17 16 17 17 18 15 17 15 15 14 15 15 15 14 14 14 12 12 19 24 26 23 18 16 16 16 15 15 15 15 14 10 10 9 9 9 9 9 9 9 9 9 10 10
2 3 2 2 1 1 2 2 3 3 3 1 3 4 4 5 9 12 12 11 9 8 13 15 14 14 14 13 13 14 15 16 16 16 16 15 15 14 14 15 17 19 19 18 17 14 15 16 18 16 15 14 16 13 13 14 14 13 12 13 13 12 15 23 16 17 16 16 16 15 13 12 13 13 11 9 9 9 9 9 10 10 9 10 10 10 9
0 0 2 2 4 2 3 1 3 6 3 5 6 4 5 4 7 9 10 10 12 11 10 13 13 14 14 14 15 15 16 17 17 16 15 15 14 13 13 13 15 15 18 17 17 17 15 17 16 15 15 15 14 14 13 13 12 12 11 10 11 12 15 17 18 16 15 16 15 14 13 12 13 11 11 10 9 9 9 10 10 9 10 10 10 9 9
3 1 2 2 1 4 7 9 6 10 9 7 6 7 7 6 7 9 9 10 10 12 11 13 13 14 14 14 15 15 16 16 15 14 14 14 15 16 17 18 16 18 17 18 18 15 13 14 15 14 13 14 13 13 14 14 14 13 13 13 13 12 12 12 14 13 13 14 14 15 15 14 11 10 9 9 9 9 9 9 9 9 9 9 8 8 12
3 4 5 4 4 5 5 7 8 8 9 12 9 6 7 8 8 9 9 10 11 12 11 12 13 13 13 14 14 14 14 14 16 17 16 15 16 17 16 16 18 15 17 15 13 13 14 15 14 15 14 14 14 14 14 14 13 13 13 13 12 12 12 13 13 12 13 13 12 10 10 11 10 8 9 9 8 8 8 8 8 8 8 8 7 7 9
3 3 3 4 5 5 6 7 7 8 9 10 12 11 11 9 10 11 12 11 10 11 12 13 13 13 13 13 13 13 14 14 15 15 15 15 16 14 14 16 16 18 16 15 13 11 14 14 19 23 18 15 14 14 15 14 13 13 13 13 11 12 13 13 13 13 13 12 11 10 9 11 11 9 8 7 7 7 7 7 7 7 7 6 6 7 7
2 5 4 5 5 5 7 8 7 8 9 10 12 13 14 12 11 12 10 11 10 11 12 12 12 13 14 13 13 13 12 12 12 13 14 14 13 14 15 15 15 15 15 15 14 13 14 14 21 28 18 12 12 13 15 21 13 12 11 12 11 11 11 11 11 10 11 11 11 10 11 10 9 8 7 7 7 6 6 6 4 4 4 5 6 6 4
4 5 5 5 6 7 8 8 7 8 11 14 13 12 14 14 12 11 11 11 11 11 11 11 12 13 14 14 12 12 13 13 14 16 16 16 14 16 15 12 11 11 11 12 15 15 13 17 24 18 13 12 12 12 15 22 22 15 10 11 10 10 10 9 10 10 10 10 9 9 8 7 6 5 5 5 5 5 4 4 4 5 5 5 6 6 6
5 4 4 5 5 7 9 8 6 7 8 14 17 15 13 13 12 11 12 11 11 11 10 11 12 13 13 13 13 13 14 16 17 19 19 20 15 11 13 13 11 10 11 14 16 15 15 16 16 14 12 12 14 13 15 18 20 12 10 10 11 9 9 7 7 7 6 6 5 4 3 2 2 2 3 2 3 3 3 3 5 4 7 7 7 7 7
6 5 7 7 7 7 8 9 8 9 9 8 11 15 13 11 11 11 11 11 11 9 10 11 12 11 12 12 13 13 14 18 16 16 18 16 14 14 13 10 8 10 14 19 16 13 18 25 18 12 12 12 12 11 11 16 16 11 9 8 8 8 6 6 5 4 4 3 3 3 3 3 4 3 3 4 4 4 5 6 7 7 8 7 7 7 8
6 7 6 6 8 7 8 9 11 10 9 10 10 12 11 11 11 10 11 12 11 9 10 10 11 11 11 11 12 14 15 14 14 16 14 12 12 11 11 14 12 13 14 15 15 16 17 16 14 12 12 12 11 13 12 14 10 8 8 8 8 8 7 7 5 5 5 5 5 4 4 4 5 6 5 6 6 6 7 7 7 7 7 8 7 8 8
7 6 8 8 8 8 8 9 10 12 11 9 11 11 11 10 10 12 12 11 11 10 10 10 12 12 11 11 11 12 15 15 14 14 12 8 9 10 12 13 14 13 21 22 18 16 13 13 13 12 12 13 12 18 19 11 8 8 8 8 8 8 7 8 7 6 6 5 5 5 5 5 6 6 6 6 6 6 7 8 8 8 7 8 8 8 8
7 8 8 9 9 8 9 9 10 12 12 11 10 10 10 9 9 10 10 10 10 10 10 9 9 10 9 9 10 11 11 10 11 12 14 8 5 4 7 11 13 14 23 18 15 12 11 12 12 11 19 17 13 20 16 9 8 8 8 8 8 8 8 8 7 7 7 6 6 6 6 6 6 6 7 7 6 6 6 7 8 7 7 7 8 8 8
7 8 8 9 10 9 9 10 10 10 11 11 8 8 8 9 9 10 10 9 9 9 9 8 8 8 8 7 8 8 8 8 9 9 8 12 14 5 2 10 12 16 22 16 13 12 11 11 10 18 22 22 22 19 11 9 9 9 8 8 8 8 8 7 8 8 8 7 7 6 6 6 6 6 6 7 7 7 7 7 7 7 8 8 8 8 9
8 9 9 10 9 9 10 9 10 11 11 10 10 9 9 9 10 9 9 8 8 8 6 8 8 8 6 6 6 7 7 6 6 5 6 8 10 13 12 14 15 13 16 22 13 11 10 12 18 24 20 22 20 18 9 9 9 9 9 9 8 8 8 8 8 8 8 8 8 7 7 7 6 6 6 7 7 7 7 8 7 7 7 8 8 8 8
9 9 8 9 10 10 10 10 10 9 10 10 9 9 8 8 8 8 6 6 6 6 6 8 7 7 7 7 8 8 8 6 3 4 4 2 5 10 12 13 12 12 20 21 11 12 11 21 24 23 23 21 19 11 9 9 9 9 9 9 9 9 8 8 8 8 8 8 7 7 7 7 7 7 6 6 6 7 7 8 8 7 7 7 8 8 8
8 8 8 8 10 10 10 10 8 8 8 7 7 7 6 5 6 5 6 7 6 6 5 6 6 5 6 7 6 6 7 9 6 1 0 3 6 9 11 15 14 17 15 11 10 10 12 16 18 24 23 22 17 10 9 9 9 9 9 9 9 8 9 8 8 8 8 7 8 8 8 8 7 7 7 7 7 7 7 8 8 8 7 7 8 8 8
7 8 10 9 10 12 9 7 6 6 6 8 7 7 6 6 6 5 6 5 5 5 5 4 3 3 4 5 4 3 3 3 8 6 4 8 8 7 7 7 10 16 16 11 12 11 19 22 22 22 22 20 12 10 11 10 10 10 9 9 9 9 9 8 8 8 8 8 8 8 8 8 8 7 7 7 7 7 7 7 7 7 7 7 7 8 9
6 8 10 11 9 10 7 6 5 6 6 6 5 6 5 6 6 5 4 4 6 5 4 3 3 3 3 3 3 2 2 1 1 5 7 7 7 7 8 8 12 13 11 8 9 8 14 20 19 20 18 13 10 10 10 10 10 10 10 10 9 9 9 9 9 8 8 8 8 8 8 8 8 7 8 8 7 7 7 8 7 7 6 7 7 6 7
7 6 6 6 6 6 6 6 5 6 6 5 5 5 5 5 4 4 3 4 4 6 4 4 3 2 3 3 2 2 2 3 3 4 5 6 6 6 7 7 8 11 11 9 8 9 11 16 14 15 12 9 9 9 9 9 9 10 9 10 9 9 10 10 10 12 9 9 9 8 8 8 8 9 8 8 8 8 8 7 7 9 12 9 7 7 10
6 6 6 6 5 5 6 6 6 6 5 5 5 5 4 4 4 4 3 4 4 5 4 4 2 2 3 4 3 4 4 4 4 5 5 5 5 6 7 7 7 7 9 8 7 8 8 9 9 10 10 9 9 8 8 9 8 9 9 9 9 8 8 9 9 9 9 9 8 8 8 8 8 7 7 7 7 7 7 6 7 7 7 6 6 8 10
6 7 7 4 5 4 5 5 6 5 4 5 5 5 4 4 4 4 3 5 4 4 4 4 4 4 4 5 5 5 5 6 5 5 5 6 6 6 7 8 7 8 8 8 8 8 7 8 8 10 9 9 8 8 8 9 9 8 8 9 7 8 8 8 8 7 8 8 8 8 8 7 7 8 8 7 7 7 7 7 6 6 6 6 6 7 7
Wind_Direction
266 270 276 280 271 249 265 270 280 281 282 277 264 260 262 267 261 277 284 286 285 316 67 16 24 14 347 359 25 8 5 356 4 5 7 4 358 353 353 348 347 347 343 340 337 339 338 339 341 341 340 341 342 341 343 343 343 342 339 338 336 335 328 316 300 286 274 263 256 252 247 241 234 227 221 216 212 206 206 211 209 208 205 200 198 198 197
281 278 273 278 272 272 264 256 249 248 257 262 263 269 274 265 261 267 277 281 283 68 345 9 16 5 354 329 352 339 7 7 1 1 2 0 355 349 345 339 337 336 336 334 334 334 336 338 338 338 338 339 340 340 340 341 341 341 341 337 336 334 334 329 317 300 283 274 266 257 249 242 238 231 224 217 208 206 208 209 208 203 199 200 201 201 198
268 269 273 273 274 280 281 284 286 279 270 267 266 277 269 271 274 268 265 270 280 107 103 282 41 263 350 350 326 350 340 354 0 357 355 350 345 338 336 336 333 332 331 331 332 335 336 337 335 335 333 333 333 334 338 338 338 337 337 334 335 334 332 332 331 326 311 290 276 266 256 247 242 235 227 219 212 210 208 202 203 199 195 199 203 201 200
284 285 283 286 297 291 281 278 276 272 268 273 271 262 290 260 271 284 305 280 217 345 98 286 262 44 331 1 323 309 329 341 353 353 344 343 336 332 333 330 329 331 332 333 335 334 335 334 334 335 335 333 332 334 336 335 335 334 335 336 336 336 336 336 337 334 326 311 294 278 266 254 245 235 227 218 215 210 204 202 201 192 200 204 201 197 199
266 275 283 305 327 306 280 255 248 254 260 256 264 267 75 250 158 222 258 287 90 229 297 356 313 1 320 318 324 293 262 320 325 346 336 330 324 324 324 326 327 328 326 328 328 329 331 333 332 331 331 329 331 333 333 330 331 333 335 334 333 332 335 336 333 332 326 318 303 290 275 262 253 238 225 221 218 209 207 202 189 198 204 194 201 199 197
290 285 295 8 329 277 263 278 172 197 248 253 254 252 100 322 155 185 86 155 89 180 259 319 305 320 315 301 289 270 239 280 309 326 326 315 313 313 315 315 321 321 323 321 324 325 325 326 325 323 327 326 324 327 323 322 327 327 331 330 331 328 332 335 334 331 328 321 311 299 288 273 257 240 227 224 220 213 205 191 197 201 197 199 197 196 198
267 289 346 310 263 260 332 -0 344 52 86 87 110 115 147 114 99 102 113 177 78 237 221 230 251 259 271 264 273 281 206 225 294 318 310 309 308 310 310 316 318 321 320 318 316 321 322 322 322 323 324 326 326 326 327 323 323 324 324 324 324 328 330 330 333 332 330 325 316 308 299 283 267 250 236 235 222 212 202 200 199 200 197 198 198 196 195
340 215 227 244 258 116 152 87 314 151 110 122 95 73 155 158 121 111 93 220 204 233 243 250 248 255 267 273 265 256 202 207 270 308 310 306 309 308 313 315 317 316 318 314 313 315 317 316 318 322 321 325 326 321 320 317 318 321 321 320 320 327 330 330 330 328 327 322 317 311 305 295 275 261 251 235 225 215 210 213 213 207 209 204 199 198 196
229 222 214 239 300 288 204 300 230 155 188 167 157 195 215 164 222 150 207 241 219 225 240 249 255 270 282 288 288 162 180 218 249 280 301 308 304 304 299 302 302 301 298 301 305 311 313 315 317 320 322 327 323 318 317 316 317 317 319 318 321 327 326 327 326 324 322 319 315 311 306 296 277 265 258 249 242 220 217 217 210 208 208 203 202 199 197
219 235 259 259 225 243 250 185 222 37 213 123 285 105 255 121 248 247 203 223 225 224 237 244 257 292 307 316 319 205 229 256 293 292 284 290 290 284 290 291 291 294 294 294 303 308 310 311 312 316 321 324 320 313 313 315 316 316 316 316 319 323 322 323 320 317 314 311 308 304 302 290 278 273 264 262 244 217 216 216 215 215 206 205 206 203 202
276 267 243 241 249 262 139 203 195 243 168 158 212 113 268 165 219 251 191 218 223 221 228 239 252 346 305 294 285 243 221 276 295 298 294 286 282 285 288 294 297 299 297 300 302 302 300 300 306 316 320 320 317 311 310 312 311 309 311 314 321 321 318 316 312 311 309 306 302 296 289 280 270 265 254 242 241 216 227 227 227 217 208 209 207 203 205
228 255 264 259 257 253 228 204 238 217 95 183 154 298 304 112 268 224 199 218 236 231 221 214 203 232 273 283 288 291 292 280 282 283 289 293 290 288 291 291 290 294 303 305 301 300 300 298 307 317 319 315 311 309 308 310 308 308 312 319 319 317 312 310 307 305 306 304 299 293 286 280 269 256 252 241 226 209 224 221 225 214 214 213 208 207 198
242 246 257 291 289 291 147 179 231 264 207 143 285 262 266 175 177 209 190 220 236 224 219 202 202 227 223 245 267 289 295 305 293 284 276 281 287 291 293 292 296 298 298 299 298 298 296 299 306 312 312 307 302 304 307 308 305 309 313 319 319 316 310 304 305 305 304 300 295 290 278 275 271 259 240 227 218 208 211 216 202 212 210 213 208 208 196
233 229 243 252 258 237 171 264 198 223 91 224 237 243 152 175 294 214 188 218 235 222 217 221 221 242 247 264 274 282 287 286 285 282 286 288 287 285 286 290 295 296 299 299 298 295 295 302 306 308 308 301 296 300 302 297 301 312 316 318 317 312 303 300 304 305 303 301 292 284 283 276 269 255 246 222 212 209 204 194 201 209 208 203 208 203 200
40 319 257 283 265 301 116 220 16 177 135 227 210 351 311 269 259 256 240 210 243 221 243 235 241 251 259 259 266 270 279 283 285 287 286 287 287 289 293 294 292 300 305 303 300 299 299 300 301 302 305 298 297 297 293 294 309 313 317 316 314 308 302 304 307 306 304 300 296 290 278 268 259 260 243 221 215 200 197 197 201 205 203 200 194 203 200
221 203 212 208 213 206 221 106 193 253 226 255 321 343 292 282 224 223 240 237 234 232 232 249 251 245 251 267 265 271 272 272 279 282 283 281 283 284 278 273 282 297 294 292 297 299 299 298 299 299 302 299 297 296 291 306 314 314 315 313 310 305 301 302 306 306 304 299 292 281 269 262 253 252 243 226 215 204 193 195 201 199 205 195 196 199 200
158 204 232 242 215 247 254 220 243 251 268 273 213 220 239 268 266 217 214 249 248 231 232 240 246 257 245 252 262 269 273 281 284 285 286 288 287 288 288 287 288 295 290 295 296 294 293 294 295 298 298 297 298 295 297 318 312 312 311 309 305 300 301 304 304 303 302 299 291 278 265 248 248 244 237 222 217 208 190 200 200 202 204 192 206 209 205
248 239 238 256 311 278 279 277 271 270 278 279 236 213 243 236 242 235 238 250 253 249 216 221 243 241 255 266 270 270 277 282 282 285 288 289 288 285 285 286 290 295 293 290 290 290 293 291 291 293 291 290 290 290 305 314 312 311 307 302 299 298 300 302 301 301 300 295 290 278 263 244 240 238 233 223 222 207 195 202 199 206 206 202 212 213 215
273 263 243 152 243 258 264 266 277 284 225 255 264 228 218 251 267 269 238 238 252 252 208 212 233 254 264 270 272 279 285 281 282 284 287 288 287 288 288 287 299 305 303 298 294 293 293 292 295 296 294 291 286 294 301 307 308 305 301 299 297 296 294 295 298 297 293 291 290 285 264 253 241 239 232 228 225 220 206 200 201 205 207 205 211 213 217
228 256 263 256 247 252 264 273 280 280 280 267 256 242 248 258 267 265 269 240 249 235 239 235 244 261 269 271 277 286 285 283 284 285 284 285 288 285 283 287 297 296 290 289 289 290 286 286 294 297 292 290 292 297 301 305 305 303 300 299 298 295 292 293 290 290 289 285 285 279 270 252 248 242 231 222 225 221 208 204 199 206 205 204 209 209 212
246 257 270 272 270 275 271 260 250 249 257 269 275 275 271 266 268 279 299 217 254 250 260 312 260 274 272 271 275 281 285 286 284 281 283 285 286 287 289 291 297 286 290 289 286 288 284 287 294 294 288 288 292 297 300 304 306 305 298 296 296 293 291 289 283 282 281 280 278 279 274 263 244 241 233 225 228 234 227 215 207 205 200 213 210 209 201
252 246 253 247 263 271 265 253 245 249 257 245 261 285 298 315 301 334 314 293 268 253 272 260 253 258 274 280 277 272 273 276 280 285 288 290 288 286 285 292 287 285 282 279 285 286 285 290 295 291 293 291 290 294 299 299 301 295 294 295 293 288 287 286 282 276 270 270 273 274 271 269 265 256 240 238 233 228 237 218 223 224 218 215 210 196 203
254 253 249 252 253 263 265 269 286 51 26 141 248 297 319 6 70 58 356 311 311 292 271 214 238 255 266 275 284 281 275 275 277 281 286 290 289 287 293 296 291 288 286 286 283 283 286 294 290 290 290 290 291 297 296 292 294 289 287 287 285 285 287 284 285 287 285 282 277 275 277 276 268 263 265 245 241 242 239 231 221 225 227 231 224 208 203
258 263 266 258 199 238 261 273 59 78 41 85 89 97 86 75 339 328 315 263 277 293 299 284 232 249 271 275 282 279 283 282 284 287 287 283 279 284 290 289 291 295 295 294 291 288 291 293 291 289 288 286 290 297 294 285 281 279 277 278 280 283 283 283 286 282 280 280 281 273 266 261 260 262 258 259 253 239 241 239 236 233 232 232 231 227 219
250 255 267 261 220 247 264 111 116 92 57 48 81 50 16 336 321 325 301 292 252 265 287 291 292 252 258 283 287 285 286 287 287 291 291 290 290 292 293 296 294 294 293 292 291 291 291 292 292 290 287 285 291 291 284 280 275 273 275 275 275 277 278 280 280 279 276 272 271 269 266 263 258 251 251 250 254 259 235 236 236 234 233 234 233 231 225
256 266 291 64 252 259 203 88 82 42 20 28 10 301 298 295 283 290 271 266 280 268 268 280 291 296 288 280 288 288 288 284 291 296 295 295 296 297 295 293 294 293 290 290 288 291 292 289 286 285 283 285 291 288 280 275 269 266 270 271 271 272 276 276 275 271 269 266 266 267 262 262 263 260 252 245 248 249 250 233 235 238 237 234 232 230 229
51 24 20 312 286 267 68 325 284 8 336 347 301 309 299 296 290 282 283 277 274 278 275 280 283 289 297 290 289 284 284 294 299 294 292 290 292 293 296 296 294 292 291 289 287 288 287 286 284 282 280 284 289 282 281 275 274 272 270 270 270 272 276 276 267 263 263 276 290 294 295 286 269 254 248 245 239 241 237 236 229 224 218 225 228 228 226
80 24 59 212 256 301 0 13 1 312 321 309 335 325 324 314 312 310 304 300 288 271 270 271 286 297 298 300 310 301 299 292 289 292 295 291 294 297 297 295 291 290 288 286 283 284 283 283 280 279 280 285 285 282 279 277 275 275 275 271 270 272 276 277 279 287 288 284 278 270 264 264 269 267 253 239 234 234 235 234 232 229 229 216 213 221 224
57 58 40 37 339 295 285 297 269 333 331 331 318 310 315 328 310 301 295 300 307 308 299 299 283 288 296 301 310 301 298 296 294 293 294 297 300 298 295 291 287 282 283 281 282 281 279 278 278 279 280 284 280 277 277 275 275 275 275 274 271 270 267 268 269 267 262 258 256 261 265 266 264 258 248 240 234 233 230 230 229 228 227 214 198 215 226
24 21 9 342 319 346 18 28 36 305 298 296 321 319 349 336 314 304 301 308 314 305 301 310 306 298 299 297 297 296 295 296 296 297 296 297 297 294 292 289 288 282 272 272 276 278 279 278 280 278 284 284 282 280 277 278 278 275 275 273 270 270 269 265 260 264 270 278 281 276 270 261 254 251 245 237 232 227 227 226 224 222 218 211 207 203 205
319 334 301 0 68 35 31 291 287 271 270 287 344 316 309 303 286 293 299 309 309 299 303 306 305 303 304 296 295 295 292 291 291 291 291 290 289 290 291 290 293 296 298 294 289 286 284 285 283 287 290 290 289 287 284 279 276 274 270 264 259 268 275 280 281 281 277 271 266 261 256 265 274 276 253 233 226 223 224 223 222 218 216 210 208 207 206
350 39 106 129 32 330 312 266 262 261 271 294 319 305 309 316 301 295 299 302 299 306 308 308 305 302 301 302 301 300 297 294 292 291 289 288 287 285 287 288 289 289 291 295 297 298 299 298 296 293 292 290 288 282 279 278 275 275 272 278 278 281 277 276 276 274 273 271 273 270 261 259 257 251 250 237 226 221 218 217 219 216 212 210 209 207 197
88 272 271 314 337 321 267 250 316 304 317 307 294 290 299 282 279 284 287 295 302 302 298 292 296 297 302 303 303 301 298 296 293 290 291 294 295 296 301 305 304 303 303 302 301 301 297 294 292 293 292 290 287 286 285 284 285 284 284 278 276 277 279 278 274 274 271 268 264 265 266 251 247 245 237 231 225 222 219 219 218 215 212 212 209 202 191
40 10 327 332 268 287 306 304 321 308 302 290 292 297 288 282 280 282 287 290 288 290 292 295 295 299 300 302 300 299 299 302 305 307 306 305 311 318 317 313 307 303 299 298 300 298 293 290 292 294 295 294 292 291 288 287 283 281 278 277 276 275 272 270 269 267 266 265 258 256 261 273 262 238 229 223 222 219 220 218 218 215 214 212 207 195 198
351 325 316 304 307 299 292 288 292 290 296 297 295 277 275 283 284 280 283 289 290 293 295 295 296 298 299 297 297 294 295 294 299 304 311 317 318 317 315 311 307 303 300 297 296 295 296 297 298 298 296 295 292 289 286 284 282 279 276 274 270 264 265 263 262 257 259 263 265 260 250 250 255 246 230 221 217 218 218 217 217 213 212 207 199 189 190
316 291 284 279 282 279 275 274 274 276 281 282 287 292 291 286 288 290 292 290 292 295 294 294 296 297 294 293 293 296 297 299 304 308 314 317 315 313 310 310 309 309 305 302 301 303 308 305 305 305 306 302 299 296 292 291 284 282 277 276 270 270 267 266 264 262 262 258 253 245 249 248 246 241 228 224 217 213 213 212 213 209 207 196 175 176 180
263 265 271 279 274 275 272 272 271 278 278 281 288 292 291 288 285 287 289 290 293 290 291 293 295 293 291 290 289 287 290 301 308 311 313 314 312 312 312 311 313 313 315 312 318 321 312 309 307 310 310 304 303 300 301 301 298 293 288 283 276 273 268 265 263 259 257 252 253 255 252 249 236 228 215 209 209 207 205 207 197 180 163 157 167 148 126
278 266 271 274 277 275 271 267 271 271 280 280 276 274 279 285 288 289 289 290 287 287 287 287 284 283 287 288 289 295 304 309 311 312 312 314 317 315 315 318 316 317 316 315 316 315 311 310 312 314 313 310 307 306 304 305 305 302 290 287 280 272 260 256 257 254 258 257 257 252 246 230 216 201 192 202 195 196 185 166 149 148 139 103 92 108 115
291 280 271 271 274 274 279 279 273 269 267 274 279 279 275 278 283 286 285 284 282 283 286 284 284 286 288 294 300 306 311 314 315 314 314 317 319 320 309 306 298 302 304 310 312 314 314 317 321 317 313 311 312 308 309 313 317 312 302 297 295 289 291 284 283 277 277 271 262 249 222 203 173 171 159 151 125 114 111 111 103 91 89 102 101 94 95
284 290 284 286 284 284 287 287 285 279 273 266 274 281 285 286 283 283 282 282 280 277 280 284 290 291 297 299 307 311 315 316 316 314 316 319 324 321 312 305 306 313 320 318 318 315 321 324 324 316 315 314 315 314 317 322 323 320 312 306 302 305 304 307 312 322 328 337 358 13 43 41 52 58 69 71 82 76 79 78 83 90 91 82 83 88 92
286 287 289 285 284 287 288 293 292 287 284 279 273 272 276 277 281 282 280 278 282 283 281 282 287 288 294 304 309 311 311 311 309 307 315 327 328 328 325 318 326 333 326 326 323 324 325 327 325 320 320 323 321 328 326 328 330 324 322 322 325 329 333 339 345 348 354 1 18 27 40 57 67 63 62 69 71 77 78 81 82 86 94 99 94 93 89
288 294 292 293 292 290 291 288 290 290 282 272 271 271 272 270 270 270 274 279 281 283 282 281 280 292 302 308 309 307 305 305 306 316 334 330 315 323 322 317 330 327 327 328 329 329 328 328 328 329 330 331 328 333 335 332 330 331 335 339 342 342 347 350 357 359 5 20 25 32 35 52 63 69 62 73 70 78 83 87 86 87 88 90 97 99 107
299 300 296 293 291 292 287 287 283 280 281 279 273 270 269 268 267 270 273 275 279 281 283 282 292 299 301 305 309 308 308 312 321 332 327 314 300 272 284 304 319 323 328 331 332 329 330 329 332 335 341 343 342 343 341 340 338 341 347 351 351 353 358 2 2 3 12 21 28 32 38 50 56 68 70 69 68 68 73 81 90 90 91 93 99 96 99
297 293 292 292 289 288 287 283 280 279 278 278 274 274 277 276 273 272 275 277 281 281 288 299 304 304 303 307 305 307 310 323 329 333 325 326 335 349 340 328 324 324 332 337 336 334 330 332 334 345 346 351 352 355 351 348 347 351 354 -0 1 4 0 3 10 14 15 19 25 31 37 43 52 58 67 74 78 73 73 75 81 85 93 92 97 99 103
300 294 287 283 284 285 281 276 274 275 277 282 286 284 278 275 276 273 273 274 277 288 298 306 307 307 310 310 301 298 297 303 299 308 318 336 332 321 336 335 332 332 334 340 335 332 333 339 347 351 356 358 0 0 359 355 356 357 358 1 4 9 11 13 14 17 19 22 24 25 31 36 43 49 60 66 69 70 77 81 77 80 88 93 98 106 106
284 283 283 285 283 276 271 271 273 275 280 283 285 284 280 274 273 275 269 274 289 294 302 305 300 307 316 310 303 299 297 293 269 253 217 220 300 307 318 326 329 330 335 338 333 336 338 345 352 357 359 3 6 7 5 2 4 4 5 4 8 10 13 15 18 21 22 25 27 31 33 33 32 34 41 48 61 75 81 84 86 78 79 88 96 97 94
282 286 282 275 273 274 275 275 277 279 280 289 291 294 292 290 290 288 290 290 292 296 297 291 293 309 311 307 311 316 331 336 342 108 312 300 316 319 323 324 325 328 336 337 337 340 344 350 355 358 1 3 7 8 6 10 10 13 11 14 10 15 15 19 18 21 24 29 31 37 42 46 47 51 53 56 59 64 71 77 80 80 81 86 94 101 102
286 284 283 281 279 280 286 287 292 291 289 282 280 286 294 296 296 300 303 305 306 302 292 277 291 289 292 297 299 324 329 332 322 317 358 344 329 321 319 322 323 331 336 337 339 339 348 356 1 4 6 7 5 7 6 9 12 13 16 16 17 17 19 21 21 23 25 29 30 34 35 37 38 44 48 58 62 63 69 75 85 87 83 86 86 64 87
281 280 284 283 282 284 291 291 292 291 290 290 298 297 302 303 307 307 312 318 312 301 297 311 291 280 292 305 325 330 312 299 241 278 311 319 314 318 313 321 327 336 340 338 340 339 348 355 2 7 8 8 10 9 10 10 11 13 15 17 19 18 18 22 25 22 29 29 34 36 41 41 43 44 52 52 56 55 62 65 66 69 79 80 80 80 86
292 296 296 297 293 299 301 306 302 292 292 303 305 309 308 313 316 324 327 323 324 333 330 315 300 302 315 307 314 329 311 313 288 285 288 302 309 313 321 327 332 340 346 344 343 344 346 351 358 4 9 9 11 15 16 14 16 18 20 16 19 21 20 20 27 28 29 32 34 38 40 45 50 54 56 58 56 58 60 59 56 63 63 68 71 77 53
307 303 294 287 291 298 306 304 298 307 307 317 317 313 320 327 322 326 328 332 342 341 325 313 306 345 338 349 348 348 346 342 331 329 324 322 327 328 333 337 338 342 348 348 351 346 347 353 355 358 2 5 10 12 18 19 20 19 20 23 20 23 20 21 24 28 28 29 31 34 35 40 43 51 47 56 60 68 62 65 63 65 62 63 64 70 54
302 290 282 305 313 322 319 314 322 324 330 333 323 319 324 327 331 324 326 351 346 324 323 321 330 356 6 354 352 353 351 350 344 337 342 342 342 343 341 344 348 350 352 352 350 349 353 353 355 357 1 5 5 5 4 13 19 20 19 21 22 23 26 27 23 30 29 29 33 39 36 36 40 46 46 42 46 49 48 49 50 52 58 67 70 77 77